Regional Weather Roundup
Issued by NWS

Home | Current Version | Previous Version | Text Only | Print | Product List | Glossary On
Versions: 1 2 3 4 5 6 7 8 9 10 11 12 13 14 15 16 17 18 19 20 21 22 23 24 25 26 27
000
ASUS42 KKEY 171810
RWRKEY

FLORIDA REGIONAL WEATHER ROUNDUP FOR THE FLORIDA KEYS
NATIONAL WEATHER SERVICE KEY WEST FLORIDA
200 PM EDT THU AUG 17 2017

...SOUTH FLORIDA AND THE KEYS...

CITY           SKY/WX    TMP DP  RH WIND       PRES   REMARKS
FORT MYERS     MOSUNNY   92  75  57 CALM      30.05F HX 103
SW REGIONAL AP MOSUNNY   93  72  50 NE3       30.06F HX 101
NAPLES         MOSUNNY   91  77  63 W9        30.05F HX 104
MIAMI          MOSUNNY   93  74  53 E13       30.06F HX 103
WEST KENDALL   MOSUNNY   93  74  53 E12       30.05F HX 103
HOMESTEAD      MOSUNNY   91  78  67 E9        30.05F HX 105
MARATHON       SUNNY     93  78  61 E7        30.05F HX 108
BOCA CHICA NAS CLOUDY    87  78  74 E9G20     30.06S THUNDER HX 100
KEY WEST INTL  CLOUDY    91  77  63 E12       30.06F HX 104

...INTERNATIONAL WEATHER...

CITY           SKY/WX    TMP DP  RH WIND       PRES   REMARKS
NASSAU BAHAMAS PTSUNNY   84  79  84 W5        30.07F HX  96
CANCUN MEXICO  MOSUNNY   90  73  58 E10       30.02F HX  98
COZUMEL MEXICO MOSUNNY   90  77  66 E6        30.01F HX 102

ADJACENT COASTAL WATERS...

STATION/POSITION TIME  SKY/WX   TEMP    WIND        PRES    WAVE
                                AIR SEA DIR/SP/G            HT/PER
                 (UTC)          (F)     (DEG/KT/KT) (MB)    (FT/S)
PULASKI SHOAL LI 1800            87      80/  8/  9 1017.9F
SAND KEY         1750            85      20/  2/  4 1018.3F
LONG KEY         NOT AVBL
MOLASSES REEF    1700            85 87  120/  6/  6 1018.7F
FOWEY ROCKS      1700            85 88   90/  8/  9 1019.2F
Buoy 42097       1730               89                N/A     1/ 3

$$




USA.gov is the U.S. government's official web portal to all federal, state and local government web resources and services.